STARLINK-35290, 65846

Orbit data source: Space-Track

STARLINK-35290, 65846 is a payload satellite owned by SpaceX/Seattle (US) in LEO that was launched on Mon, 29 Sep 2025 UTC via an FALCON 9 launch vehicle from the Air Force Western Test Range (AFWTR). Payload-class satellites include a variety of spacecraft equipped with specific instruments for various scientific and technological missions. These include communications satellites like Starlink; space stations such as the ISS; scientific satellites like the Hubble; Earth observation satellites from companies like Planet Labs, Umbra, and HawkEye 360; GPS; miniature CubeSats for education and research; and military/defense satellites.

Loading next visibility...
Identifier
65846, 2025-221Z
Orbit
LEO
Country
Flag of USUS
Related business
Manufacturer
SpaceX/Seattle
Mission
Operational Commercial Communications
Bus & Motor
STARLINK V2MO, Unknown motor
Mass
575 kg wet, ~530 kg dry
Launch date (UTC)
2025-09-29 (9 months ago)
Launch vehicle
FALCON 9
Launch site
Air Force Western Test Range (AFWTR)
Object type
Payload
Rocket body
Debris
Shape & HBR
Box + 2 Pan, 17.7 m
Radar Cross Section
36.964 m², Large (>1 m²)

Expand to show TLE details & history
Last TLE update: 17 hours ago

TLE from 17 hours ago
0 STARLINK-35290
1 65846U 25221Z   26171.14990616  .00013504  00000-0  41007-3 0  9992
2 65846  53.1616 331.4902 0001985  80.2358 279.8869 15.34400206 40439
Epoch: 2026-06-20T03:35Z
TLE epoch observation values (Epoch: 2026-06-20T03:35:51.892Z)
Latitude
0.00002°
Longitude
9.15533°
Altitude
463.371 km
Speed
7.636 km/s
True Right ascension
22h 05m 57s
True Declination
0° 00' 00"
Sunlit
Object was in full shadow at epoch
Visualization orbit readout
Latitude
Unknown
Longitude
Unknown
Altitude
Unknown
Speed
Unknown
Apparent Right ascension
Unknown
Apparent Declination
Unknown
Sunlit
N/A
Visualization observer readout
Local Sidereal Time
07:19:07
Azimuth
Unknown
Elevation
Unknown
Doppler factor
Unknown
Orbital elements
Apogee altitude
464.317 km
Perigee altitude
461.601 km
Semi-major axis
6,841.096 km
Eccentricity
0.0002
Inclination
53.1616°
RAAN
331.4902°
Arg. of periapsis
80.2358°
True anomaly
279.86449°
Mean anomaly
279.8869°
Eccentric anomaly
279.8757°
Mean motion
3.83579 °/min
Orbital period
93.85 mins
BSTAR
0.00041007
Loading maneuver chart data...
Computing Atmospheric mass density...
Loading historical data...
Loading historical data...
Loading historical data...
Loading historical data...
Loading historical data...
Loading historical data...
Loading historical data...

Documentation

Showing up to 5 results
|